Valladolid Airport, Spain

10:17 PM CEST on September 26, 2017 (GMT +0200)
Villanubla

Weather History for LEVD - February, 2013

Change the Weather History Date:

Sunday, February 3, 2013

  Actual Average Record
Temperature  
Mean Temperature 35 °F -  
Max Temperature 44 °F - - ()
Min Temperature 26 °F - - ()
Degree Days  
Heating Degree Days 30    
Moisture  
Dew Point 29 °F    
Average Humidity 76    
Maximum Humidity 100    
Minimum Humidity 53    
Precipitation  
Precipitation 0.00 in - - ()
Sea Level Pressure  
Sea Level Pressure 30.39 in    
Wind  
Wind Speed 6 mph ()    
Max Wind Speed 10 mph    
Max Gust Speed -    
Visibility 6.2 miles    
Events      
T = Trace of Precipitation, MM = Missing Value Source: Averaged Metar Reports

Daily Weather History Graph

Daily Weather History Graph

Search for Another Location

Airport or City:

Trip Planner

Search our weather history database for the weather conditions in past years. The results will help you decide how hot, cold, wet, or windy it might be!

Date:

Astronomy

Feb. 03, 2013 Rise Set
Actual Time 8:29 AM CET 6:37 PM CET
Civil Twilight 8:00 AM CET 7:06 PM CET
Nautical Twilight 7:27 AM CET 7:40 PM CET
Astronomical Twilight 6:54 AM CET 8:12 PM CET
Moon 1:40 AM CET (2/3) 12:04 PM CET (2/3)
Length of Visible Light 11h 06m
Length of Day
10h 08m
Waning Gibbous, 51% of the Moon is Illuminated
Feb 3
Waning Gibbous
Feb 3
Last Quarter
Feb 10
New
Feb 17
First Quarter
Feb 25
Full

Hourly Weather History & Observations

Time (CET) Temp. Windchill Dew Point Humidity Pressure Visibility Wind Dir Wind Speed Gust Speed Precip Events Conditions
6:00 AM 26.6 °F 18.2 °F 26.6 °F 100% 30.33 in - North 8.1 mph - N/A   Clear
6:30 AM 26.6 °F 17.5 °F 26.6 °F 100% 30.33 in - NNW 9.2 mph - N/A   Clear
7:00 AM 28.4 °F 19.7 °F 26.6 °F 93% 30.33 in - NNW 9.2 mph - N/A   Clear
7:30 AM 28.4 °F 20.4 °F 26.6 °F 93% 30.33 in - North 8.1 mph - N/A   Clear
8:00 AM 26.6 °F 18.2 °F 24.8 °F 93% 30.33 in - North 8.1 mph - N/A   Clear
8:30 AM 26.6 °F 19.1 °F 24.8 °F 93% 30.36 in - NNW 6.9 mph - N/A   Clear
9:00 AM 26.6 °F 20.0 °F 24.8 °F 93% 30.36 in - North 5.8 mph - N/A   Clear
9:30 AM 28.4 °F 21.2 °F 28.4 °F 100% 30.39 in - NNW 6.9 mph - N/A   Clear
10:00 AM 32.0 °F 25.6 °F 30.2 °F 93% 30.39 in - NNW 6.9 mph - N/A   Clear
10:30 AM 33.8 °F 29.6 °F 30.2 °F 87% 30.39 in - NNW 4.6 mph - N/A   Clear
11:00 AM 35.6 °F 28.6 °F 32.0 °F 87% 30.39 in - NNW 9.2 mph - N/A   Clear
11:30 AM 39.2 °F 32.5 °F 32.0 °F 75% 30.39 in - North 10.4 mph - N/A   Clear
12:00 PM 41.0 °F 34.7 °F 32.0 °F 70% 30.42 in - NNW 10.4 mph - N/A   Clear
12:30 PM 41.0 °F 34.7 °F 32.0 °F 70% 30.42 in 6.2 mi North 10.4 mph - N/A   Partly Cloudy
1:00 PM 42.8 °F 37.0 °F 32.0 °F 66% 30.39 in 6.2 mi North 10.4 mph - N/A   Partly Cloudy
1:30 PM 42.8 °F 38.0 °F 32.0 °F 66% 30.39 in 6.2 mi North 8.1 mph - N/A   Partly Cloudy
2:30 PM 44.6 °F 42.2 °F 30.2 °F 57% 30.39 in 6.2 mi North 4.6 mph - N/A   Scattered Clouds
3:30 PM 44.6 °F - 30.2 °F 57% 30.39 in 6.2 mi NNW 2.3 mph - N/A   Partly Cloudy
4:00 PM 44.6 °F 42.2 °F 28.4 °F 53% 30.39 in 6.2 mi NNW 4.6 mph - N/A   Partly Cloudy
4:30 PM 44.6 °F 40.7 °F 30.2 °F 57% 30.39 in 6.2 mi North 6.9 mph - N/A   Partly Cloudy
5:00 PM 44.6 °F 43.1 °F 28.4 °F 53% 30.39 in 6.2 mi North 3.5 mph - N/A   Partly Cloudy
5:30 PM 44.6 °F - 28.4 °F 53% 30.39 in - Variable 1.2 mph - N/A   Clear
6:00 PM 44.6 °F - 28.4 °F 53% 30.39 in - WNW 1.2 mph - N/A   Clear
6:30 PM 42.8 °F - 30.2 °F 61% 30.39 in - North 1.2 mph - N/A   Clear
7:00 PM 39.2 °F 37.0 °F 30.2 °F 70% 30.42 in - North 3.5 mph - N/A   Clear
7:30 PM 37.4 °F - 30.2 °F 75% 30.42 in - Calm Calm - N/A   Clear
8:00 PM 37.4 °F 34.9 °F 30.2 °F 75% 30.42 in - NNE 3.5 mph - N/A   Clear
8:30 PM 37.4 °F - 30.2 °F 75% 30.42 in - South 1.2 mph - N/A   Clear
9:00 PM 35.6 °F - 30.2 °F 81% 30.42 in - Calm Calm - N/A   Clear
9:30 PM 35.6 °F - 28.4 °F 75% 30.42 in - Calm Calm - N/A   Clear
10:00 PM 35.6 °F - 28.4 °F 75% 30.45 in - Calm Calm - N/A   Clear
10:30 PM 33.8 °F - 28.4 °F 81% 30.45 in - Calm Calm - N/A   Clear